Search flights

Chicago-O'Hare Intl Airport, Chicago (KORD)

Airport Weather & NOTAM's

SPECI for:KORD (Chicago/O'Hare Intl, IL, US)
Text:KORD 140423Z 35011G21KT 1SM R10L/3500V5500FT +TSRA BR SCT006 BKN014 OVC033CB 20/19 A3009 RMK AO2 PK WND 36037/0406 WSHFT 0343 RAB0354 TSB0357 CONS LTGICCG OHD TS OHD MOV E P0028 T02000189
Conditions at:0423 UTC 14 Jul 2024
Temperature: 20.0°C ( 68°F)
Dewpoint: 18.9°C ( 66°F) [RH = 93%]
Pressure (altimeter):30.09 inches Hg (1019.0 mb)
Winds:from the N (350 degrees) at 13 MPH (11 knots; 5.7 m/s) gusting to 24 MPH (21 knots; 10.8 m/s)
Visibility:1.00 sm (1.61 km)
Ceiling:1400 feet AGL
Clouds:scattered clouds at 600 feet AGL, broken clouds at 1400 feet AGL, overcast cloud deck at 3300 feet AGL
Weather:+TSRA BR (heavy rain associated with thunderstorm(s), mist)
TAF for:KORD (Chicago/O'Hare Intl, IL, US) issued at 0420 UTC 14 Jul 2024
Text:KORD 140420Z 1404/1506 18008KT 3/4SM +TSRA FEW010 BKN025CB
Forecast period:0400 to 0600 UTC 14 July 2024
Forecast type:FROM: standard forecast or significant change
Winds:from the S (180 degrees) at 9 MPH (8 knots; 4.1 m/s)
Visibility:0.75 sm (1.21 km)
Ceiling:2500 feet AGL
Clouds:few clouds at 1000 feet AGL, broken clouds at 2500 feet AGL
Weather:+TSRA (heavy rain associated with thunderstorm(s))
Text:FM140600 18008KT P6SM VCTS FEW020 BKN040CB
Forecast period:0600 to 0800 UTC 14 July 2024
Forecast type:FROM: standard forecast or significant change
Winds:from the S (180 degrees) at 9 MPH (8 knots; 4.1 m/s)
Visibility:6 or more sm (10+ km)
Ceiling:4000 feet AGL
Clouds:few clouds at 2000 feet AGL, broken clouds at 4000 feet AGL
Weather:VCTS (thunderstorm in vicinity)
Text:FM140800 20009KT P6SM BKN040
Forecast period:0800 to 1800 UTC 14 July 2024
Forecast type:FROM: standard forecast or significant change
Winds:from the SSW (200 degrees) at 10 MPH (9 knots; 4.6 m/s)
Visibility:6 or more sm (10+ km)
Ceiling:4000 feet AGL
Clouds:broken clouds at 4000 feet AGL
Text:FM141800 23012G21KT P6SM SCT040
Forecast period:1800 UTC 14 July 2024 to 0000 UTC 15 July 2024
Forecast type:FROM: standard forecast or significant change
Winds:from the SW (230 degrees) at 14 MPH (12 knots; 6.2 m/s) gusting to 24 MPH (21 knots; 10.8 m/s)
Visibility:6 or more sm (10+ km)
Ceiling:at least 12,000 feet AGL
Clouds:scattered clouds at 4000 feet AGL
Text:FM150000 22008KT P6SM SCT050
Forecast period:0000 to 0600 UTC 15 July 2024
Forecast type:FROM: standard forecast or significant change
Winds:from the SW (220 degrees) at 9 MPH (8 knots; 4.1 m/s)
Visibility:6 or more sm (10+ km)
Ceiling:at least 12,000 feet AGL
Clouds:scattered clouds at 5000 feet AGL
Text:PROB30 1500/1504 3SM TSRA BKN050CB
Forecast period:0000 to 0400 UTC 15 July 2024
Forecast type:PROBABLE: 30 percent likelihood of the following during this time
Visibility:3 sm (5 km)
Ceiling:5000 feet AGL
Clouds:broken clouds at 5000 feet AGL
Weather:TSRA (rain associated with thunderstorm(s))

Live Departures & Arrivals

There are currently no arrivals or departures for this airport.

Departures History (last 12 months)

Flight No. Dest. Aircraft Date
FX 996 KMEM GENERIC-B7... 2024-07-08 00:00:00
FX 481 KAFW FEDEX-B77F 2024-07-08 00:00:00
FX 690 RJAA FEDEX-B77F 2024-06-19 00:00:00
FX996 KMEM IF-LIVERY-... 2024-06-15 00:00:00
FX 970 KLAX GENERIC-B7... 2024-06-15 00:00:00
FX501 KEWR FEDEX-MD11... 2024-06-12 00:00:00
FX CTR ZGGG FEDEX-B77F 2024-05-10 00:00:00
FX CTR KPHX FEDEX-B77F 2024-04-28 00:00:00
FX 690 RJAA FEDEX-B77F 2024-04-11 00:00:00
FX 481 KAFW FEDEX-B77F 2024-03-27 00:00:00
FX CTR KCGX FEDEX-C208 2024-03-22 00:00:00
FX 690 RJAA FEDEX-B77F 2024-03-19 00:00:00
FX 690 RJAA FEDEX-B77F 2024-03-11 00:00:00
FX CTR LXGB FEDEX-B77F 2024-02-28 00:00:00
TK 014 KATL TNT-B77F 2024-02-27 00:00:00
TNT 140 EBLG TNT-B77F 2024-02-04 00:00:00
FX 1033 KMEM GENERIC-B7... 2024-02-03 00:00:00
FX504 KEWR FEDEX-B77F 2024-01-26 00:00:00
FX CTR CYWG FEDEX-B77F 2024-01-22 00:00:00
FX 723 RJAA FEDEX-B77F 2024-01-21 00:00:00
TK014 KATL FEDEX-B77F 2024-01-19 00:00:00
FX1033 KMEM B752 2024-01-06 00:00:00
FX WINTER 14 KMEM MD11F 2024-01-05 00:00:00
FX WINTER 14 KMEM MD11F 2024-01-05 00:00:00
FX WINTER 14 KMEM MD11F 2024-01-04 00:00:00
FX504 KEWR B77F 2024-01-03 00:00:00
FX WINTER 14 KMEM MD11F 2024-01-02 00:00:00
FX 504 KEWR B77F 2024-01-03 00:00:00
FX WINTER 14 KMEM MD11F 2023-12-30 00:00:00
FX 484 KAFW B77F 2023-12-24 00:00:00
FX WINTER 14 KMEM MD11F 2023-12-23 00:00:00
FX WINTER 14 KMEM MD11F 2023-12-21 00:00:00
FX WINTER 14 KMEM MD11F 2023-12-21 00:00:00
FXWINTER1 KMEM MD11F 2023-12-20 00:00:00
FX WINTER 14 KMEM MD11F 2023-12-19 00:00:00
FXWINTER1 KMEM MD11F 2023-12-19 00:00:00
FX WINTER 14 KMEM MD11F 2023-12-17 00:00:00
FX WINTER 14 KMEM MD11F 2023-12-16 00:00:00
FX WINTER 14 KMEM MD11F 2023-12-12 00:00:00
FX WINTER 14 KMEM MD11F 2023-12-12 00:00:00
FXWINTER1 KMEM MD11F 2023-12-09 00:00:00
FXWINTER1 KMEM MD11F 2023-12-06 00:00:00
FX WINTER 14 KMEM MD11F 2023-12-05 00:00:00
FX WINTER 14 KMEM MD11F 2023-12-03 00:00:00
TNT 140 EBLG TNT B77F 2023-11-30 00:00:00
FX ATC KORD IFATC 2023-11-30 00:00:00
FX CTR OMDB B77F 2023-11-18 00:00:00
FX ATC KORD IFATC 2023-11-14 00:00:00
FX 723 RJAA B77F 2023-11-15 00:00:00
EK 017 SEQM EMIRATES B... 2023-11-06 00:00:00
FX EVENT KGSO FEDEX MD11... 2023-01-16 00:00:00
FX CTR KLAX MD11F 2023-11-04 00:00:00
FDX-CTR KPHL B77F 2023-11-04 00:00:00
FX 395 KIND B77F 2023-10-22 00:00:00
FX 504 KEWR B77F 2023-10-21 00:00:00
FX1033 KMEM B752 2023-10-19 00:00:00
FX 484 KAFW B77F 2023-10-20 00:00:00
FX ATC KORD IFATC 2023-10-16 00:00:00
FX1033 KMEM B752 2023-10-14 00:00:00
FX ROTW KATL TURKISH B7... 2023-09-10 00:00:00
FX CTR PANC B77F 2023-08-09 00:00:00
FX 504 KEWR MD11F 2023-07-20 00:00:00

Arrivals History (last 12 months)

Flight No. Origin Aircraft Date
FX 500 KEWR FEDEX-B77F 2024-07-09 00:00:00
FX1250 KIAD IF-LIVERY-... 2024-07-04 00:00:00
FNF 08 CYYZ FEDEX-B77F 2024-06-14 00:00:00
FX 974 KBOS GENERIC-B7... 2024-06-15 00:00:00
FNF 08 CYYZ FEDEX-B77F 2024-06-14 00:00:00
FNF 08 CYYZ FEDEX-MD11... 2024-06-14 00:00:00
FNF 08 CYYZ FEDEX-B77F 2024-06-14 00:00:00
FNF 08 CYYZ FEDEX-MD11... 2024-06-14 00:00:00
FX542 KGSO FEDEX-MD11... 2024-06-11 00:00:00
FX 500 KEWR FEDEX-B77F 2024-05-27 00:00:00
FX 500 KEWR FEDEX-B77F 2024-05-19 00:00:00
FX CTR VHHH FEDEX-B77F 2024-05-09 00:00:00
FX 542 KGSO FEDEX-B77F 2024-05-08 00:00:00
FX 480 KAFW FEDEX-B77F 2024-04-21 00:00:00
FX 1061 KMKE IF-LIVERY-... 2024-04-17 00:00:00
FX393 KIND IF-LIVERY-... 2024-04-12 00:00:00
FX393 KIND FEDEX-B77F 2024-04-12 00:00:00
FX 542 KGSO FEDEX-B77F 2024-04-12 00:00:00
FX 480 KAFW FEDEX-B77F 2024-04-10 00:00:00
FX 393 KIND FEDEX-B77F 2024-04-05 00:00:00
FX 1061 KMKE IF-LIVERY-... 2024-04-02 00:00:00
FX 480 KAFW FEDEX-B77F 2024-03-23 00:00:00
FX 691 PANC FEDEX-B77F 2024-03-06 00:00:00
FX 691 PANC FEDEX-B77F 2024-02-25 00:00:00
FX 503 KEWR FEDEX-B77F 2024-02-21 00:00:00
FX 1100 KMKE IF-LIVERY-... 2024-02-07 00:00:00
FX 724 PANC FEDEX-B77F 2024-02-03 00:00:00
FX 1063 KDTW FEDEX-B77F 2024-01-31 00:00:00
FX 1063 KDTW GENERIC-B7... 2024-02-01 00:00:00
FX 503 KEWR FEDEX-B77F 2024-01-25 00:00:00
FX 483 KAFW FEDEX-B77F 2024-01-21 00:00:00
FX 483 KAFW FEDEX-B77F 2024-01-21 00:00:00
FX483 KAFW FEDEX-B77F 2024-01-21 00:00:00
FX 483 KAFW FEDEX-B77F 2024-01-21 00:00:00
FX 483 KAFW FEDEX-B77F 2024-01-21 00:00:00
FX724 PANC FEDEX-B77F 2024-01-16 00:00:00
FX CTR KOAK B77F 2024-01-09 00:00:00
FX WINTER 13 CYWG B738 2024-01-04 00:00:00
EK 009 EHAM EMIRATES B... 2024-01-03 00:00:00
FX WINTER 13 CYWG B738 2024-01-03 00:00:00
FX WINTER 13 CYWG B738 2024-01-02 00:00:00
FX 503 KEWR B77F 2024-01-02 00:00:00
FX WINTER 13 CYWG B738 2023-12-31 00:00:00
FX 545 KGSO B77F 2023-12-31 00:00:00
FX WINTER 13 CYWG B738 2023-12-30 00:00:00
FX WINTER 13 CYWG B738 2023-12-23 00:00:00
FX 503 KEWR B77F 2023-12-24 00:00:00
FX WINTER 13 CYWG B738 2023-12-21 00:00:00
FX WINTER 13 CYWG B738 2023-12-21 00:00:00
FX 545 KGSO B77F 2023-12-21 00:00:00
FX WINTER 13 CYWG B738 2023-12-20 00:00:00
FX WINTER 13 CYWG B738 2023-12-19 00:00:00
FXWINTER1 CYWG B738 2023-12-19 00:00:00
FX WINTER 13 CYWG B738 2023-12-17 00:00:00
EK 009 EHAM EMIRATES B... 2023-12-16 00:00:00
FX WINTER 13 CYWG B738 2023-12-13 00:00:00
FX WINTER 13 CYWG B738 2023-12-12 00:00:00
FX WINTER 13 CYWG B738 2023-12-11 00:00:00
FXWINTER1 CYWG B738 2023-12-08 00:00:00
FXWINTER1 CYWG B738 2023-12-06 00:00:00
FX WINTER 13 CYWG B738 2023-12-05 00:00:00
FX WINTER 13 CYWG B738 2023-12-03 00:00:00
FX ATC KORD IFATC 2023-11-30 00:00:00
FX CTR KDEN MD11F 2023-11-23 00:00:00
FX CTR KMIA B77F 2023-11-21 00:00:00
FX CTR KSTL B77F 2023-11-14 00:00:00
FX ATC KORD IFATC 2023-11-14 00:00:00
FX 545 KGSO B77F 2023-11-14 00:00:00
FX 394 KIND MD11F 2023-11-15 00:00:00
FX 1013 KOAK B763 2023-11-06 00:00:00
FDX-CTR KIND B77F 2023-11-04 00:00:00
TK013 EINN TURKISH B7... 2023-10-21 00:00:00
FXCTR ZBAD B77F 2023-10-21 00:00:00
EK009 EHAM EMIRATES B... 2023-10-21 00:00:00
FX483 KAFW B752 2023-10-19 00:00:00
FX1031 KSEA B763 2023-10-19 00:00:00
FX 503 KEWR B77F 2023-10-16 00:00:00
FX ATC KORD IFATC 2023-10-16 00:00:00
FX CTR SBBR B77F 2023-10-13 00:00:00
FX CTR KDTW MD11F 2023-10-11 00:00:00
FX CTR KDFW B77F 2023-10-10 00:00:00
FX ROTW EHAM B77F 2023-07-31 00:00:00
EK 009 EHAM EMIRATES B... 2023-07-30 00:00:00

Runway Information (Airport elevation: 680ft)

Runway 04L Length 7,495ft Width 150ft Elevation 661ft Surface Asphalt Heading 39
Runway 04R Length 8,064ft Width 150ft Elevation 661ft Surface Asphalt Heading 41
Runway 09C Length 11,222ft Width 200ft Elevation 661ft Surface Concrete Heading 90
Runway 09L Length 7,494ft Width 150ft Elevation 661ft Surface Asphalt Heading 90
Runway 09R Length 11,566ft Width 150ft Elevation 661ft Surface Asphalt Heading 90
Runway 10C Length 10,789ft Width 195ft Elevation 661ft Surface Asphalt Heading 90
Runway 10L Length 12,993ft Width 150ft Elevation 661ft Surface Asphalt Heading 90
Runway 10R Length 7,478ft Width 175ft Elevation 661ft Surface Asphalt Heading 90
Runway 22L Length 8,064ft Width 150ft Elevation 661ft Surface Asphalt Heading 221
Runway 22R Length 7,495ft Width 150ft Elevation 661ft Surface Asphalt Heading 219
Runway 27C Length 11,222ft Width 200ft Elevation 661ft Surface Concrete Heading 270
Runway 27L Length 11,566ft Width 150ft Elevation 661ft Surface Asphalt Heading 270
Runway 27R Length 7,494ft Width 150ft Elevation 661ft Surface Asphalt Heading 270
Runway 28C Length 10,789ft Width 195ft Elevation 661ft Surface Asphalt Heading 270
Runway 28L Length 7,478ft Width 175ft Elevation 661ft Surface Asphalt Heading 270
Runway 28R Length 12,993ft Width 150ft Elevation 661ft Surface Asphalt Heading 270

Airport Frequencies

Type Ground Frequency 118.050 Mhz
Type Ground Frequency 121.675 Mhz
Type Ground Frequency 124.125 Mhz
Type Ground Frequency 128.900 Mhz
Type Ground Frequency 128.975 Mhz
Type Ground Frequency 129.050 Mhz
Type Ground Frequency 129.075 Mhz
Type Ground Frequency 129.675 Mhz
Type Ground Frequency 130.375 Mhz
Type Ground Frequency 130.625 Mhz
Type Ground Frequency 131.300 Mhz
Type Ground Frequency 131.700 Mhz
Type Ground Frequency 131.875 Mhz
Type Tower Frequency 119.625 Mhz
Type Tower Frequency 126.800 Mhz
Type Tower Frequency 128.050 Mhz
Type Tower Frequency 128.150 Mhz
Type Tower Frequency 133.000 Mhz
Type UC Frequency 122.950 Mhz
Type APP/DEP Frequency 119.000 Mhz
Type APP/DEP Frequency 124.350 Mhz
Type APP/DEP Frequency 125.700 Mhz
Type APP/DEP Frequency 133.625 Mhz
Type ATIS Frequency 135.400 Mhz
Type Clearance Frequency 119.250 Mhz
Type Clearance Frequency 121.600 Mhz
Type CPT Frequency 119.250 Mhz
Type CPT Frequency 121.600 Mhz
Type D Frequency 125.000 Mhz
Type D Frequency 126.625 Mhz
Type Ground Frequency 118.050 Mhz
Type Ground Frequency 121.750 Mhz
Type Ground Frequency 121.900 Mhz
Type Ground Frequency 124.125 Mhz
Type Ground Frequency 134.150 Mhz
Type Ground Frequency 121.675 Mhz
Type Tower Frequency 120.750 Mhz
Type Tower Frequency 121.150 Mhz
Type Tower Frequency 126.900 Mhz
Type Tower Frequency 128.150 Mhz
Type Tower Frequency 132.700 Mhz
Type Tower Frequency 133.000 Mhz
Type UC Frequency 122.950 Mhz
Type D Frequency 120.550 Mhz
Type D Frequency 128.200 Mhz
Type D Frequency 133.500 Mhz

Airport Navaids

Type NDB Ident IA Frequency 414 Khz
Type NDB Ident ID Frequency 385 Khz
Type NDB Ident ME Frequency 350 Khz
Type NDB Ident OH Frequency 368 Khz
Type NDB Ident OR Frequency 394 Khz
Type DME Ident GCO Frequency 108250 Khz